This demonstration page uses our WeatherBlox Daily Observations layout. Learn more.

41.55636, -103.73856

Hourly Observations for July 15, 2016

Temp ( °F °C ) Dew Point ( °F °C ) Humidity (%) Winds ( mph kmh ) Pressure ( in mb ) Visibility ( mi km ) Precip ( " mm )
12:53 am 00:53 Clear 65 18.3 55 12.8 70 70 ESE 7 11 29.97 1015 10 16.0934 0 0
1:53 am 01:53 Clear 65 18.3 56 13.3 73 73 E 9 15 29.95 1014 10 16.0934 0 0
2:53 am 02:53 Clear 64 17.8 56 13.3 75 75 E 9 15 29.93 1014 10 16.0934 0 0
3:53 am 03:53 Clear 64 17.8 57 13.9 78 78 E 7 11 29.91 1013 10 16.0934 0 0
4:53 am 04:53 Clear 63 17.2 58 14.4 84 84 E 9 15 29.92 1013 10 16.0934 0 0
5:53 am 05:53 Sunny 62 16.7 58 14.4 86 86 undefined N/A 29.93 1014 10 16.0934 0 0
6:53 am 06:53 Sunny 65 18.3 58 14.4 78 78 undefined N/A 29.95 1014 10 16.0934 0 0
7:33 am 07:33 Mostly Cloudy 67 19.4 58 14.4 73 73 undefined N/A 29.94 1014 10 16.0934 0 0
7:53 am 07:53 Cloudy 67 19.4 58 14.4 73 73 E 13 20 29.99 1016 10 16.0934 0 0
8:53 am 08:53 Cloudy 65 18.3 56 13.3 73 73 ENE 16 26 30.03 1017 10 16.0934 0 0
9:53 am 09:53 Cloudy 64 17.8 55 12.8 73 73 ENE 18 30 30.06 1018 10 16.0934 0 0
10:53 am 10:53 Cloudy 63 17.2 53 11.7 70 70 ESE 23 37 30.1 1019 10 16.0934 0 0
11:53 am 11:53 Cloudy 64 17.8 51 10.6 63 63 SE 16 26 30.11 1020 10 16.0934 0 0
12:53 pm 12:53 Cloudy 68 20 49 9.4 51 51 SSE 18 30 30.09 1019 10 16.0934 0 0
1:53 pm 13:53 Mostly Cloudy 77 25 47 8.3 35 35 SE 20 31 30.05 1018 10 16.0934 0 0
2:53 pm 14:53 Mostly Cloudy 78 25.6 50 10 37 37 SSE 15 24 30.01 1016 10 16.0934 0 0
3:53 pm 15:53 Sunny 79 26.1 52 11.1 39 39 SSE 17 28 29.97 1015 10 16.0934 0 0
4:53 pm 16:53 Sunny 79 26.1 52 11.1 39 39 SE 16 26 29.96 1014 10 16.0934 0 0
5:53 pm 17:53 Sunny 79 26.1 52 11.1 39 39 S 13 20 29.95 1014 10 16.0934 0 0
6:53 pm 18:53 Sunny 76 24.4 54 12.2 47 47 S 14 22 29.94 1014 10 16.0934 0 0
7:53 pm 19:53 Sunny 72 22.2 54 12.2 53 53 SSE 12 19 29.95 1014 10 16.0934 0 0
8:53 pm 20:53 Clear 67 19.4 54 12.2 63 63 SE 8 13 29.98 1015 10 16.0934 0 0
9:53 pm 21:53 Clear 65 18.3 55 12.8 70 70 ESE 7 11 29.98 1015 10 16.0934 0 0
10:53 pm 22:53 Clear 65 18.3 54 12.2 68 68 SE 13 20 29.98 1015 10 16.0934 0 0
11:53 pm 23:53 Clear 66 18.9 54 12.2 65 65 S 9 15 30 1016 10 16.0934 0 0

Powered by AerisWeather